[Iaude] MPEC A08: 2023 YV1 [a=1.17,e=0.16,i=12.9,H=23.6]

mpec at marsden.cfa.harvard.edu mpec at marsden.cfa.harvard.edu
Mon Jan 1 13:28:07 EST 2024


M.P.E.C. 2024-A08                               Issued 2024 January 1, 18:26 UT

     The Minor Planet Electronic Circulars contain information on unusual
         minor planets, routine data on comets and natural satellites,
         and occasional editorial announcements.  They are published
    on behalf of Division F of the International Astronomical Union by the
          Minor Planet Center, Smithsonian Astrophysical Observatory,
                          Cambridge, MA 02138, U.S.A.
			  
             Prepared using the Tamkin Foundation Computer Network

                              MPC at CFA.HARVARD.EDU
            URL https://www.minorplanetcenter.net/    ISSN 1523-6714

                                    2023 YV1                                    


Observations:
     K23Y01V*1C2023 12 31.11168800 10 37.229+38 20 13.67               VEA008G96
     K23Y01V 1C2023 12 31.11739900 10 42.028+38 19 38.46         19.81GVEA008G96
     K23Y01V 1C2023 12 31.12312400 10 47.255+38 19 03.00         19.82GVEA008G96
     K23Y01V 1C2023 12 31.12884200 10 52.417+38 18 27.29         19.52GVEA008G96
     K23Y01V mC2023 12 31.14845800 11 10.244+38 16 24.71               VEA008I52
     K23Y01V mC2023 12 31.14881200 11 10.604+38 16 21.68         21.49GVEA008I52
     K23Y01V mC2023 12 31.14916700 11 10.939+38 16 19.78         20.90GVEA008I52
     K23Y01V mC2023 12 31.14952200 11 11.242+38 16 17.33         20.60GVEA008I52
     K23Y01V KC2023 12 31.91838 00 23 34.80 +36 53 40.6                VEA008204
     K23Y01V KC2023 12 31.92517 00 23 41.29 +36 52 52.6                VEA008204
     K23Y01V KC2023 12 31.93370 00 23 49.54 +36 51 51.9          20.0 GVEA008204
     K23Y01V KC2024 01 01.19063000 28 01.448+36 23 23.35         20.03GVEA008I52
     K23Y01V KC2024 01 01.19217700 28 02.888+36 23 11.54         19.44GVEA008I52
     K23Y01V KC2024 01 01.19372400 28 04.372+36 23 00.56         19.99GVEA008I52
     K23Y01V KC2024 01 01.19527100 28 05.840+36 22 49.62         19.57GVEA008I52
     K23Y01V KB2024 01 01.73873900 37 09.74 +35 17 16.1          19.7 GXEA008958
     K23Y01V KB2024 01 01.74460400 37 15.22 +35 16 32.6          19.8 GXEA008958
     K23Y01V KB2024 01 01.75046600 37 20.71 +35 15 48.8          19.3 GXEA008958

Observer details:
204 Schiaparelli Observatory.  Observers L. Buzzi, G. Galli.  0.84-m f/3.5
    reflector + CCD.
958 Observatoire de Dax.  Observer P. Dupouy.  0.50-m f/4.5 Reflector + CMO.
G96 Mt. Lemmon Survey.  Observer R. A. Kowalski.  Measurers E. C. Beshore, D.
    Fay, J. B. Fazekas, D. C. Fuls, A. R. Gibbs, A. D. Grauer, H. Groeller, J.
    K. Hogan, R. A. Kowalski, S. M. Larson, G. J. Leonard, D. Rankin, R. L.
    Seaman, F. C. Shelly, K. W. Wierzchos.  1.5-m reflector + 10K CCD.
I52 Steward Observatory, Mt. Lemmon Station.  Observers D. C. Fuls, G. J.
    Leonard.  Measurers E. C. Beshore, D. Fay, J. B. Fazekas, D. C. Fuls, A.
    R. Gibbs, A. D. Grauer, H. Groeller, J. K. Hogan, R. A. Kowalski, S. M.
    Larson, G. J. Leonard, D. Rankin, R. L. Seaman, F. C. Shelly, K. W.
    Wierzchos.  1.0-m prime focus + CCD.

Orbital elements:
2023 YV1                                                 Earth MOID = 0.0210 AU
Epoch 2023 Sept. 13.0 TT = JDT 2460200.5                MPC                     
M 292.61713              (2000.0)            P               Q                  
n   0.77761342     Peri.  146.42694     +0.30769467     -0.92657088             
a   1.1711887      Node   284.83451     +0.81633368     +0.37386590             
e   0.1603114      Incl.   12.93052     +0.48879782     -0.04111803             
P   1.27           H   23.63          G   0.15           U   8                  
Residuals in seconds of arc
231231 G96 (4.3+  0.2-)   231231 I52  0.1+  0.0     240101 I52  0.3-  0.4-
231231 G96  0.1-  0.0     231231 I52  0.1-  0.3-    240101 I52  0.0   0.0
231231 G96  0.3+  0.1+    231231 204  0.9+  0.2+    240101 I52  0.1+  0.4+
231231 G96  0.0   0.0     231231 204  0.3+  0.3+    240101 958  0.1+  0.5-
231231 I52  0.4-  0.4+    231231 204  0.4+  0.0     240101 958  0.0   0.2-
231231 I52  0.0   0.4-    240101 I52  0.0   0.1+    240101 958  0.0   0.0

Ephemeris:
2023 YV1                 a,e,i = 1.17, 0.16, 13                  q = 0.9834
Date    TT    R. A. (2000) Decl.     Delta      r    Elong.  Phase     V
2023 12 02    20 18 13.0 +45 12 09   0.1633  0.9845    84.7    85.8    22.7
...
2023 12 17    21 28 52.1 +46 21 41   0.1098  0.9852    87.3    86.3    21.8
...
2023 12 25    22 44 01.9 +44 37 34   0.08214 0.9900    92.1    83.2    21.1
...
2023 12 31    00 08 53.3 +38 31 14   0.06530 0.9955    98.9    77.4    20.4
2024 01 01    00 25 01.5 +36 45 37   0.06315 0.9966   100.3    76.1    20.3
2024 01 02    00 41 27.1 +34 44 36   0.06125 0.9977   101.9    74.7    20.2
...
2024 01 08    02 17 39.0 +18 00 33   0.05672 1.0053   111.2    65.7    19.7
...
2024 01 16    03 53 17.1 -04 25 27   0.07022 1.0177   117.2    59.3    20.0
...
2024 01 31    05 24 55.4 -21 28 42   0.1255  1.0465   116.2    57.6    21.3

A. U. Tomatic                (C) Copyright 2024 MPC           M.P.E.C. 2024-A08





More information about the Iaude mailing list